Location: Nitra
(0.0000°N, 18.0833°E)
Time: 05:02:51
(UTC+01:00)

Cosmos 1980 Rocket - Pass Details

Date: 25 September 2022
Orbit: 830 x 849 km, 71.0° (Epoch: 30 November)

Event Time Altitude Azimuth Distance (km) Brightness Sun altitude
Rises 19:04:38 0° 190° (S) 3,407 5.5 -6.3°
Reaches altitude 10° 19:07:07 10° 187° (S) 2,468 4.7 -7.0°
Maximum altitude 19:12:44 66° 105° (ESE) 919 2.2 -8.4°
Drops below altitude 10° 19:18:18 10° 24° (NNE) 2,447 4.4 -9.8°
Sets 19:20:44 0° 21° (NNE) 3,376 5.1 -10.4°
